Wind_Speed
12 9 6 5 7 9 9 10 12 14 16 18 19 18 19 19 20 20 19 18 16 13 9 8 11 15 16 18 18 17 17 17 16 15 13 12 11 9 7 6 5 4 4 3
12 9 7 8 10 10 11 12 13 16 17 17 17 16 17 18 19 18 19 18 16 12 7 5 6 10 14 16 16 16 16 16 16 14 13 12 11 9 7 6 5 4 3 2
11 8 10 12 12 12 10 13 15 16 16 16 15 14 17 18 18 17 17 16 15 12 7 5 6 8 11 14 15 16 16 16 16 15 13 12 11 9 7 6 5 4 3 2
11 11 13 15 13 12 13 14 15 14 13 13 14 14 15 17 18 16 15 15 13 11 8 5 4 7 10 13 14 16 15 15 15 14 14 13 11 9 7 6 5 5 4 3
13 13 16 16 15 14 15 15 14 13 12 14 13 11 15 16 18 16 15 14 13 11 7 4 3 4 8 10 12 13 15 14 14 13 12 11 10 8 7 7 6 5 5 4
16 16 17 17 16 15 15 15 13 12 15 16 9 8 14 15 17 16 15 13 12 10 7 4 3 4 7 9 10 11 13 13 12 12 11 10 10 9 8 7 7 6 5 5
16 18 18 18 17 16 15 15 14 14 16 15 10 9 12 13 16 16 13 12 10 8 5 4 2 3 5 7 9 10 12 13 12 11 11 11 10 10 8 8 8 7 6 6
16 16 17 19 18 16 16 14 15 18 17 16 14 11 10 11 14 14 13 11 9 7 5 3 2 1 3 5 7 8 10 12 12 12 12 12 11 10 9 9 8 7 7 8
16 18 18 19 17 16 16 16 16 18 16 16 17 12 8 10 12 13 12 10 9 7 5 3 2 2 3 5 7 8 10 11 12 12 13 13 11 11 10 10 9 10 10 11
19 20 20 20 19 19 18 17 17 17 16 14 14 15 14 8 13 15 13 11 8 7 6 4 4 3 4 5 7 8 10 12 12 13 13 12 12 12 11 11 11 12 13 13
23 24 22 21 22 19 19 19 19 18 16 15 16 17 15 13 13 15 14 12 9 7 6 5 5 5 5 5 7 9 10 10 11 12 12 12 12 12 12 13 13 14 15 16
26 27 26 25 24 21 22 20 19 19 17 16 15 18 16 17 14 13 13 12 10 9 7 7 6 6 6 6 7 9 10 11 11 12 12 13 13 14 14 15 16 17 18 19
28 30 29 27 25 25 25 21 19 18 17 16 16 20 19 18 16 13 13 13 12 11 10 9 8 8 8 7 7 9 10 11 12 13 13 14 15 16 17 18 18 19 20 21
32 32 31 28 26 26 26 22 20 19 17 17 17 20 21 18 15 14 14 13 13 13 11 11 10 9 9 9 10 10 10 11 13 14 14 15 16 18 19 20 21 22 23 23
33 34 32 30 29 27 25 21 20 20 18 19 19 21 21 17 15 15 15 14 14 14 14 13 12 12 11 11 12 12 13 13 14 15 16 17 19 20 21 22 23 24 25 25
34 33 32 30 28 26 23 20 18 16 15 17 20 22 21 21 18 17 18 18 16 16 16 15 15 14 14 14 14 14 15 16 16 17 18 19 21 22 23 24 25 25 26 27
32 32 31 29 29 29 26 21 19 18 18 21 22 23 23 24 23 21 20 20 17 16 18 18 17 17 17 17 18 17 18 19 20 21 22 22 23 24 26 27 27 28 28 29
32 32 32 30 29 30 25 22 22 22 21 23 23 23 23 24 24 23 22 20 18 19 19 19 19 19 20 20 20 20 21 22 23 24 25 25 26 27 28 30 30 30 31 31
29 31 30 29 29 27 26 26 25 24 24 25 25 25 25 24 24 24 22 21 20 20 20 21 21 22 22 23 23 24 25 26 26 27 27 28 29 30 31 32 33 33 33 33
26 27 29 29 30 28 27 26 25 24 25 25 25 26 25 25 25 24 21 20 20 20 21 22 23 24 25 25 26 27 28 28 29 29 30 32 33 33 34 34 34 35 35 35
26 28 28 29 30 30 29 25 25 24 24 24 24 25 25 26 25 23 22 22 22 23 23 24 25 26 26 27 28 28 30 30 31 32 33 35 36 36 36 36 37 37 38 37
25 27 28 29 30 30 28 27 25 24 24 24 23 24 26 25 25 25 24 24 25 25 25 25 26 26 27 29 30 31 32 32 33 34 35 36 37 37 37 37 37 38 39 39
26 26 27 29 31 30 29 29 26 25 25 24 23 24 25 26 26 26 25 26 26 27 27 27 28 29 29 30 32 33 34 35 36 36 37 37 38 38 37 37 37 38 37 37
23 25 25 26 29 29 26 27 27 26 25 25 26 26 25 25 26 25 26 26 27 28 29 29 30 30 31 32 33 35 36 37 37 38 39 38 38 39 39 39 39 38 37 38
23 24 24 25 24 25 25 25 24 24 25 26 25 25 26 26 26 26 27 27 28 28 29 30 30 31 31 32 34 35 37 37 38 39 38 38 38 38 38 39 38 38 38 38
21 21 21 22 21 21 21 21 22 24 24 25 26 25 25 26 26 26 27 27 28 29 29 31 32 33 33 34 35 35 36 37 38 38 38 38 38 39 39 38 38 38 39 40
Wind_Direction
275 270 270 268 268 271 280 285 286 289 290 298 309 312 317 327 330 331 335 336 334 325 301 264 235 225 220 217 217 218 220 224 227 228 225 230 233 232 227 225 222 235 243 257
263 262 261 251 259 265 271 276 281 283 285 297 309 313 314 323 330 331 332 337 338 332 312 277 238 226 218 213 213 219 218 220 224 224 224 226 225 224 219 215 223 233 235 231
255 245 254 259 263 266 267 275 278 287 293 299 305 308 314 321 327 329 332 338 340 339 325 287 258 233 217 215 215 220 220 221 221 224 220 217 215 216 214 220 228 222 222 237
242 234 243 253 258 261 270 273 277 285 291 292 293 301 307 319 325 329 334 338 340 339 331 303 254 228 218 214 216 217 217 218 218 216 214 214 216 216 216 218 225 222 232 240
235 233 240 248 255 258 262 272 277 283 284 282 287 298 302 320 331 335 337 337 338 341 337 318 258 228 215 212 211 213 214 212 210 210 212 216 215 215 219 224 229 227 227 230
235 232 239 247 252 258 267 276 277 284 285 281 290 297 296 317 329 331 333 333 335 336 339 328 271 227 208 210 214 212 212 211 209 209 208 210 216 223 226 230 229 229 230 241
237 232 235 238 246 254 263 277 287 288 298 301 301 284 287 318 326 326 327 328 331 333 332 331 303 239 213 208 208 209 209 208 209 209 210 216 222 225 226 229 230 231 239 255
236 241 241 244 241 247 258 271 283 290 301 314 303 280 287 311 324 324 321 322 323 327 330 330 331 234 216 207 202 200 202 208 210 213 218 224 227 223 228 231 233 242 255 264
232 244 247 251 248 248 256 260 269 280 291 301 296 291 272 298 317 326 322 319 316 314 312 305 296 254 222 209 207 210 210 210 214 218 222 228 230 228 233 235 243 255 263 269
224 237 246 252 249 251 254 261 265 265 274 283 287 291 291 303 317 323 324 319 312 301 298 289 276 263 249 230 218 218 220 221 223 225 228 230 233 237 240 245 253 262 267 271
232 232 240 245 247 248 250 253 256 260 259 269 285 295 297 304 311 316 317 313 308 300 293 284 275 268 265 248 231 226 222 223 228 232 232 235 241 243 248 254 260 266 270 274
233 234 236 240 246 250 252 251 252 257 261 261 272 284 290 298 300 304 306 304 298 295 289 281 272 264 260 255 244 235 232 232 234 236 238 244 247 250 255 260 265 269 273 276
228 231 234 239 243 243 244 245 247 252 258 262 263 272 278 285 287 286 294 295 291 288 285 277 269 263 260 258 252 244 240 240 239 242 246 250 252 255 259 263 267 270 274 276
226 232 232 233 240 246 247 240 243 247 252 260 258 269 276 279 275 278 282 285 284 283 279 273 268 264 261 261 260 256 254 252 251 252 255 258 261 263 265 267 270 272 275 278
225 231 232 233 237 247 252 247 239 241 246 254 261 262 268 275 276 280 280 277 275 275 274 270 266 263 263 263 262 260 260 260 259 260 262 263 264 266 269 271 273 275 277 279
225 229 232 233 235 245 248 253 248 247 248 256 264 269 269 271 273 276 276 270 269 268 271 270 268 264 265 267 266 265 264 265 265 265 266 268 269 271 273 275 276 277 278 279
227 229 232 233 234 239 244 253 252 253 252 252 255 262 267 270 272 275 274 271 266 267 265 267 268 268 267 268 269 268 268 268 269 269 271 272 274 275 277 277 277 278 278 279
225 231 233 233 236 240 242 249 247 246 249 249 253 258 263 268 273 274 273 273 271 266 265 265 266 268 270 270 271 272 273 272 272 272 273 276 276 277 279 280 279 279 278 277
229 227 230 232 239 242 243 245 242 243 246 250 252 254 259 265 270 271 272 270 269 267 269 269 269 270 270 271 272 273 274 274 275 275 275 277 277 279 280 281 280 279 280 279
235 231 232 236 240 242 244 243 239 241 246 249 254 258 259 262 265 267 268 269 268 269 270 270 270 270 271 272 273 274 276 276 277 277 276 277 277 279 279 280 281 279 279 280
237 236 236 238 241 242 244 244 244 243 249 254 255 259 262 263 267 267 267 269 271 271 270 270 270 271 273 274 275 275 276 278 279 280 279 278 277 276 278 279 279 281 280 280
228 233 235 236 240 244 246 249 246 246 251 254 256 259 264 267 268 267 267 268 271 273 273 273 273 274 275 276 278 278 278 278 278 279 280 282 280 279 278 279 281 284 283 280
229 231 234 235 237 242 244 246 246 247 252 254 258 262 264 267 268 268 268 269 271 273 274 274 274 274 275 276 277 278 280 280 279 280 282 282 283 281 281 281 282 284 282 281
237 238 239 238 238 242 239 242 247 250 252 256 260 262 263 266 269 271 272 273 273 274 275 275 274 274 275 276 277 277 279 280 280 280 281 281 282 283 283 281 282 282 282 283
243 241 242 244 243 240 240 244 244 249 254 257 259 261 263 265 269 272 274 274 275 276 276 276 276 277 277 278 279 279 278 280 281 281 281 281 282 282 282 281 282 283 283 284
247 244 241 242 244 245 245 245 250 253 256 259 259 262 266 268 271 274 276 277 277 278 278 277 277 278 278 278 279 280 281 281 282 282 282 283 284 284 282 282 282 283 284 285
Height
5874 5875 5875 5876 5877 5878 5878 5879 5878 5876 5874 5872 5870 5867 5863 5860 5857 5853 5850 5846 5841 5837 5834 5833 5835 5837 5840 5842 5846 5850 5853 5856 5859 5862 5865 5867 5870 5872 5874 5875 5877 5878 5878 5879
5871 5872 5873 5874 5875 5876 5876 5876 5876 5874 5872 5870 5867 5865 5861 5857 5855 5852 5849 5845 5841 5837 5834 5833 5832 5835 5838 5841 5844 5848 5851 5854 5857 5860 5863 5866 5868 5871 5873 5874 5875 5877 5877 5878
5868 5871 5871 5872 5873 5874 5874 5873 5872 5870 5869 5867 5865 5863 5859 5856 5854 5851 5848 5844 5841 5837 5835 5834 5834 5836 5837 5840 5843 5847 5849 5852 5856 5859 5862 5864 5867 5870 5872 5873 5875 5876 5877 5877
5864 5867 5869 5870 5871 5871 5871 5870 5869 5867 5866 5865 5863 5859 5857 5854 5852 5849 5847 5844 5841 5838 5835 5834 5834 5835 5837 5840 5843 5845 5848 5851 5854 5857 5860 5863 5866 5868 5870 5872 5874 5875 5876 5877
5861 5863 5865 5866 5868 5868 5867 5867 5866 5864 5863 5861 5858 5856 5855 5854 5851 5849 5846 5844 5841 5838 5836 5835 5835 5835 5837 5839 5841 5844 5847 5850 5853 5856 5859 5862 5864 5867 5869 5871 5872 5874 5875 5876
5857 5860 5862 5864 5865 5865 5864 5864 5862 5861 5859 5856 5854 5855 5853 5851 5850 5848 5846 5844 5841 5839 5837 5836 5835 5836 5837 5839 5840 5843 5846 5849 5852 5855 5858 5861 5863 5866 5868 5870 5871 5872 5874 5875
5853 5856 5858 5859 5861 5862 5861 5861 5860 5858 5855 5852 5851 5851 5850 5850 5849 5848 5846 5844 5842 5840 5838 5837 5836 5836 5837 5839 5840 5843 5845 5848 5851 5854 5857 5859 5862 5864 5867 5868 5870 5871 5873 5874
5850 5852 5854 5855 5856 5858 5858 5858 5858 5856 5854 5851 5848 5847 5848 5848 5848 5847 5845 5844 5842 5841 5839 5838 5838 5838 5838 5839 5841 5843 5845 5848 5851 5854 5856 5858 5861 5863 5865 5867 5868 5870 5871 5872
5847 5849 5851 5850 5851 5853 5854 5855 5855 5854 5852 5851 5847 5844 5843 5845 5846 5845 5844 5843 5842 5841 5840 5840 5839 5839 5840 5840 5842 5844 5845 5848 5850 5852 5855 5857 5859 5862 5863 5865 5866 5868 5869 5869
5843 5845 5846 5846 5847 5848 5851 5852 5852 5851 5850 5849 5847 5843 5841 5840 5843 5843 5843 5842 5841 5840 5840 5840 5839 5840 5840 5841 5842 5843 5845 5847 5849 5851 5853 5856 5858 5860 5861 5862 5864 5865 5866 5866
5838 5840 5841 5842 5842 5844 5846 5847 5847 5847 5847 5847 5845 5844 5840 5840 5841 5841 5841 5841 5840 5840 5839 5839 5839 5839 5840 5840 5841 5843 5844 5846 5848 5850 5852 5854 5856 5857 5858 5860 5861 5862 5863 5863
5832 5834 5836 5837 5838 5840 5841 5841 5843 5843 5843 5843 5844 5845 5839 5839 5839 5839 5839 5839 5839 5839 5838 5838 5838 5839 5839 5840 5840 5841 5843 5844 5846 5848 5850 5851 5853 5854 5855 5856 5857 5858 5859 5859
5826 5828 5830 5832 5835 5835 5835 5836 5838 5839 5839 5839 5840 5841 5838 5837 5837 5837 5837 5837 5837 5837 5837 5837 5837 5837 5838 5839 5839 5840 5841 5842 5844 5846 5847 5849 5850 5851 5852 5852 5853 5854 5854 5854
5818 5820 5823 5826 5828 5827 5827 5830 5832 5834 5834 5836 5836 5835 5833 5832 5833 5834 5834 5834 5834 5835 5835 5835 5835 5836 5836 5837 5838 5838 5839 5840 5842 5843 5844 5845 5846 5847 5848 5848 5849 5849 5849 5849
5810 5813 5816 5819 5820 5821 5821 5823 5826 5829 5830 5831 5831 5830 5828 5827 5829 5831 5831 5831 5831 5832 5832 5833 5833 5834 5834 5835 5835 5836 5837 5838 5839 5840 5841 5842 5842 5843 5843 5843 5843 5843 5843 5842
5802 5806 5809 5812 5815 5815 5817 5819 5820 5822 5825 5827 5827 5825 5825 5825 5825 5827 5828 5828 5828 5828 5829 5830 5830 5831 5831 5832 5832 5833 5834 5835 5835 5836 5837 5837 5837 5837 5837 5837 5837 5837 5836 5835
5794 5799 5803 5806 5809 5810 5812 5815 5816 5818 5820 5822 5822 5821 5820 5822 5822 5823 5823 5823 5823 5824 5825 5826 5827 5827 5828 5828 5828 5829 5830 5830 5831 5831 5832 5832 5832 5831 5831 5830 5830 5829 5828 5827
5787 5791 5795 5799 5803 5804 5810 5810 5811 5812 5814 5815 5815 5816 5817 5817 5817 5818 5819 5819 5820 5821 5821 5821 5822 5823 5824 5824 5824 5824 5825 5825 5825 5825 5825 5825 5825 5824 5823 5823 5822 5821 5820 5819
5779 5784 5789 5793 5795 5798 5803 5804 5805 5806 5808 5808 5810 5811 5812 5812 5812 5812 5813 5814 5815 5816 5816 5817 5818 5818 5818 5819 5819 5819 5819 5819 5818 5818 5818 5818 5817 5816 5815 5814 5813 5812 5811 5809
5774 5778 5784 5787 5790 5792 5795 5797 5798 5800 5800 5802 5804 5805 5806 5807 5807 5807 5808 5808 5809 5810 5811 5812 5812 5812 5813 5813 5812 5813 5812 5812 5811 5810 5810 5809 5808 5807 5806 5805 5804 5803 5801 5799
5771 5774 5777 5781 5783 5784 5787 5789 5792 5794 5794 5795 5797 5798 5799 5800 5801 5801 5802 5803 5804 5804 5805 5805 5805 5806 5806 5805 5804 5805 5805 5804 5804 5802 5801 5799 5797 5796 5796 5795 5794 5793 5792 5790
5765 5768 5771 5775 5777 5779 5780 5783 5785 5786 5788 5790 5790 5791 5793 5794 5794 5795 5796 5797 5798 5798 5798 5799 5799 5799 5799 5798 5797 5797 5796 5795 5794 5793 5792 5790 5787 5786 5785 5785 5784 5783 5781 5780
5757 5761 5764 5767 5771 5772 5774 5777 5778 5780 5782 5783 5784 5785 5787 5788 5788 5789 5790 5791 5791 5791 5791 5792 5792 5792 5792 5791 5790 5789 5788 5787 5785 5784 5783 5782 5780 5777 5775 5775 5774 5772 5770 5769
5753 5754 5757 5760 5762 5765 5767 5769 5771 5774 5776 5777 5779 5780 5781 5781 5782 5782 5783 5783 5784 5784 5784 5784 5784 5784 5783 5782 5782 5780 5779 5778 5776 5775 5773 5771 5770 5768 5766 5765 5764 5762 5760 5759
5748 5751 5753 5754 5756 5757 5760 5763 5765 5768 5770 5772 5773 5774 5774 5775 5775 5776 5776 5776 5776 5776 5776 5776 5775 5775 5775 5774 5772 5771 5770 5768 5766 5765 5763 5761 5760 5758 5756 5755 5753 5752 5750 5748
5744 5746 5747 5749 5750 5752 5755 5756 5759 5762 5764 5765 5766 5767 5768 5768 5769 5769 5769 5769 5769 5768 5768 5767 5766 5766 5765 5764 5762 5761 5759 5758 5756 5754 5753 5751 5749 5748 5746 5744 5742 5740 5739 5737